K6TZ-11 Weather Reports


Display with metric or nautical units.
time (UTC)temp
F
wind
direction
speed
MPH
gust
MPH
rain 1hr
in
rain 24hr
in
rain mn
in
humidity
%
barometer
mb
20170324015951 2 273 0.0 0.0 0.00 0.00 0.00 1018.8
20170324015937 2 273 0.0 0.0 0.00 0.00 0.00 1018.8
20170324015442 3 273 0.0 0.0 0.00 0.00 0.00 1018.6
20170324015435 3 273 0.0 0.0 0.00 0.00 0.00 1018.6
20170324014936 7 273 0.0 0.0 0.00 0.00 0.00 1018.7
20170324014449 6 273 0.0 0.0 0.00 0.00 0.00 1018.2
20170324014436 6 273 0.0 0.0 0.00 0.00 0.00 1018.2
20170324013935 10 273 0.0 0.0 0.00 0.00 0.00 1018.2
20170324013435 11 273 0.0 0.0 0.00 0.00 0.00 1018.3
20170324012936 11 273 0.0 0.0 0.00 0.00 0.00 1018.3
20170324012434 10 273 0.0 0.0 0.00 0.00 0.00 1018.1
20170324012039 10 273 0.0 0.0 0.00 0.00 0.00 1017.9
20170324011935 10 273 0.0 0.0 0.00 0.00 0.00 1017.9
20170324011436 10 273 0.0 0.0 0.00 0.00 0.00 1017.8
20170324010934 11 273 0.0 0.0 0.00 0.00 0.00 1017.6
20170324010435 10 273 0.0 0.0 0.00 0.00 0.00 1017.6
20170324010425 7 273 0.0 0.0 0.00 0.00 0.00 1017.6
20170324005936 7 273 0.0 0.0 0.00 0.00 0.00 1017.5
20170324005434 7 273 0.0 0.0 0.00 0.00 0.00 1017.6
20170324004940 10 273 0.0 0.0 0.00 0.00 0.00 1017.9
20170324004935 10 273 0.0 0.0 0.00 0.00 0.00 1017.9
20170324004436 11 273 0.0 0.0 0.00 0.00 0.00 1017.9
20170324003934 14 273 0.0 0.0 0.00 0.00 0.00 1017.9
20170324003435 14 273 0.0 0.0 0.00 0.00 0.00 1018.1
20170324002936 15 273 0.0 0.0 0.00 0.00 0.00 1018.1
20170324002434 14 273 0.0 0.0 0.00 0.00 0.00 1018.2
20170324001935 14 273 0.0 0.0 0.00 0.00 0.00 1018.2
20170324001436 14 273 0.0 0.0 0.00 0.00 0.00 1018.1
20170324000934 14 273 0.0 0.0 0.00 0.00 0.00 1018.1
20170324000435 15 273 0.0 0.0 0.00 0.00 0.00 1018.1
20170323235936 16 273 0.0 0.0 0.00 0.00 0.00 1018.1
20170323235434 15 273 0.0 0.0 0.00 0.00 0.00 1018.0
20170323234935 16 273 0.0 0.0 0.00 0.00 0.00 1017.9
20170323234444 16 273 0.0 0.0 0.00 0.00 0.00 1018.0
20170323234436 16 273 0.0 0.0 0.00 0.00 0.00 1018.0
20170323233934 16 273 0.0 0.0 0.00 0.00 0.00 1017.9
20170323233435 16 273 0.0 0.0 0.00 0.00 0.00 1017.8
20170323232936 14 273 0.0 0.0 0.00 0.00 0.00 1017.8
20170323232434 15 273 0.0 0.0 0.00 0.00 0.00 1018.0
20170323231935 15 273 0.0 0.0 0.00 0.00 0.00 1018.1
20170323231436 16 273 0.0 0.0 0.00 0.00 0.00 1018.1
20170323230934 15 273 0.0 0.0 0.00 0.00 0.00 1018.1
20170323230435 16 273 0.0 0.0 0.00 0.00 0.00 1018.0
20170323225936 14 273 0.0 0.0 0.00 0.00 0.00 1017.8
20170323225441 14 273 0.0 0.0 0.00 0.00 0.00 1017.8
20170323225434 14 273 0.0 0.0 0.00 0.00 0.00 1017.8
20170323224935 14 273 0.0 0.0 0.00 0.00 0.00 1018.0
20170323224436 15 273 0.0 0.0 0.00 0.00 0.00 1018.1
20170323223934 15 273 0.0 0.0 0.00 0.00 0.00 1018.2
20170323223537 16 273 0.0 0.0 0.00 0.00 0.00 1018.3
20170323223435 16 273 0.0 0.0 0.00 0.00 0.00 1018.3
20170323222935 15 273 0.0 0.0 0.00 0.00 0.00 1018.3
20170323222433 16 273 0.0 0.0 0.00 0.00 0.00 1018.4
20170323221934 15 273 0.0 0.0 0.00 0.00 0.00 1018.4
20170323221435 15 273 0.0 0.0 0.00 0.00 0.00 1018.1
20170323220933 13 273 0.0 0.0 0.00 0.00 0.00 1018.6
20170323220434 11 273 0.0 0.0 0.00 0.00 0.00 1018.6
20170323215935 11 273 0.0 0.0 0.00 0.00 0.00 1018.7
20170323215433 8 273 0.0 0.0 0.00 0.00 0.00 1018.7
20170323214934 8 273 0.0 0.0 0.00 0.00 0.00 1018.6
20170323214438 9 273 0.0 0.0 0.00 0.00 0.00 1018.4
20170323214435 9 273 0.0 0.0 0.00 0.00 0.00 1018.4
20170323213933 8 273 0.0 0.0 0.00 0.00 0.00 1018.4
20170323213434 9 273 0.0 0.0 0.00 0.00 0.00 1018.3
20170323212934 10 273 0.0 0.0 0.00 0.00 0.00 1018.3
20170323212441 8 273 0.0 0.0 0.00 0.00 0.00 1018.1
20170323212432 8 273 0.0 0.0 0.00 0.00 0.00 1018.1
20170323211933 7 273 0.0 0.0 0.00 0.00 0.00 1018.0
20170323211434 7 273 0.0 0.0 0.00 0.00 0.00 1018.1
20170323210934 7 273 0.0 0.0 0.00 0.00 0.00 1018.3
20170323210932 7 273 0.0 0.0 0.00 0.00 0.00 1018.3
20170323210433 8 273 0.0 0.0 0.00 0.00 0.00 1018.2
20170323205934 8 273 0.0 0.0 0.00 0.00 0.00 1018.6
20170323205431 8 273 0.0 0.0 0.00 0.00 0.00 1018.7
20170323204932 8 273 0.0 0.0 0.00 0.00 0.00 1018.8
20170323204433 9 273 0.0 0.0 0.00 0.00 0.00 1018.9
20170323203931 8 273 0.0 0.0 0.00 0.00 0.00 1019.0
20170323203432 7 273 0.0 0.0 0.00 0.00 0.00 1019.0
20170323202936 7 273 0.0 0.0 0.00 0.00 0.00 1019.0
20170323202933 7 273 0.0 0.0 0.00 0.00 0.00 1019.0
20170323202431 8 273 0.0 0.0 0.00 0.00 0.00 1018.8
20170323201932 7 273 0.0 0.0 0.00 0.00 0.00 1019.0
20170323201433 8 273 0.0 0.0 0.00 0.00 0.00 1018.9
20170323200931 7 273 0.0 0.0 0.00 0.00 0.00 1018.8
20170323200432 7 273 0.0 0.0 0.00 0.00 0.00 1018.9
20170323195932 11 273 0.0 0.0 0.00 0.00 0.00 1018.9
20170323195438 9 273 0.0 0.0 0.00 0.00 0.00 1018.9
20170323195430 9 273 0.0 0.0 0.00 0.00 0.00 1018.9
20170323194933 8 273 0.0 0.0 0.00 0.00 0.00 1019.0
20170323194931 8 273 0.0 0.0 0.00 0.00 0.00 1019.0
20170323194432 7 273 0.0 0.0 0.00 0.00 0.00 1019.0
20170323193930 7 273 0.0 0.0 0.00 0.00 0.00 1019.0
20170323193431 7 273 0.0 0.0 0.00 0.00 0.00 1018.9
20170323192932 7 273 0.0 0.0 0.00 0.00 0.00 1018.9
20170323192430 8 273 0.0 0.0 0.00 0.00 0.00 1019.0
20170323191931 8 273 0.0 0.0 0.00 0.00 0.00 1018.9
20170323191431 8 273 0.0 0.0 0.00 0.00 0.00 1018.8
20170323190931 8 273 0.0 0.0 0.00 0.00 0.00 1019.0
20170323190929 8 273 0.0 0.0 0.00 0.00 0.00 1019.0
20170323190430 8 273 0.0 0.0 0.00 0.00 0.00 1018.9
20170323185931 8 273 0.0 0.0 0.00 0.00 0.00 1018.9
20170323185429 8 273 0.0 0.0 0.00 0.00 0.00 1018.9
20170323184930 9 273 0.0 0.0 0.00 0.00 0.00 1018.8
20170323184431 9 273 0.0 0.0 0.00 0.00 0.00 1018.7
20170323183929 9 273 0.0 0.0 0.00 0.00 0.00 1018.6
20170323183430 9 273 0.0 0.0 0.00 0.00 0.00 1018.4
20170323182931 9 273 0.0 0.0 0.00 0.00 0.00 1018.4
20170323182429 9 273 0.0 0.0 0.00 0.00 0.00 1018.4
20170323181930 9 273 0.0 0.0 0.00 0.00 0.00 1018.4
20170323181431 9 273 0.0 0.0 0.00 0.00 0.00 1018.3
20170323180929 9 273 0.0 0.0 0.00 0.00 0.00 1018.3
20170323180430 9 273 0.0 0.0 0.00 0.00 0.00 1018.2
20170323175931 10 273 0.0 0.0 0.00 0.00 0.00 1018.3
20170323175429 10 273 0.0 0.0 0.00 0.00 0.00 1018.3
20170323174930 10 273 0.0 0.0 0.00 0.00 0.00 1018.1
20170323174431 10 273 0.0 0.0 0.00 0.00 0.00 1018.0
20170323173938 10 273 0.0 0.0 0.00 0.00 0.00 1018.0
20170323173929 10 273 0.0 0.0 0.00 0.00 0.00 1018.0
20170323173430 9 273 0.0 0.0 0.00 0.00 0.00 1017.9
20170323172931 9 273 0.0 0.0 0.00 0.00 0.00 1017.6
20170323172429 11 273 0.0 0.0 0.00 0.00 0.00 1017.8
20170323171930 10 273 0.0 0.0 0.00 0.00 0.00 1017.6
20170323171439 10 273 0.0 0.0 0.00 0.00 0.00 1017.5
20170323171431 10 273 0.0 0.0 0.00 0.00 0.00 1017.5
20170323170929 10 273 0.0 0.0 0.00 0.00 0.00 1017.4
20170323170430 10 273 0.0 0.0 0.00 0.00 0.00 1017.4
20170323165931 10 273 0.0 0.0 0.00 0.00 0.00 1017.4
20170323165429 10 273 0.0 0.0 0.00 0.00 0.00 1017.5
20170323164930 10 273 0.0 0.0 0.00 0.00 0.00 1017.4
20170323164431 9 273 0.0 0.0 0.00 0.00 0.00 1017.5
20170323163934 9 273 0.0 0.0 0.00 0.00 0.00 1017.5
20170323163430 9 273 0.0 0.0 0.00 0.00 0.00 1017.4
20170323162933 8 273 0.0 0.0 0.00 0.00 0.00 1017.4
20170323162931 8 273 0.0 0.0 0.00 0.00 0.00 1017.4
20170323162429 9 273 0.0 0.0 0.00 0.00 0.00 1017.2
20170323161930 10 273 0.0 0.0 0.00 0.00 0.00 1016.8
20170323161442 10 273 0.0 0.0 0.00 0.00 0.00 1016.8
20170323161431 10 273 0.0 0.0 0.00 0.00 0.00 1016.8
20170323160931 10 273 0.0 0.0 0.00 0.00 0.00 1016.8
20170323160929 10 273 0.0 0.0 0.00 0.00 0.00 1016.8
20170323160429 11 273 0.0 0.0 0.00 0.00 0.00 1016.8
20170323155936 10 273 0.0 0.0 0.00 0.00 0.00 1016.7
20170323155930 10 273 0.0 0.0 0.00 0.00 0.00 1016.7
20170323155428 11 273 0.0 0.0 0.00 0.00 0.00 1016.8
20170323154929 11 273 0.0 0.0 0.00 0.00 0.00 1017.0
20170323154434 12 273 0.0 0.0 0.00 0.00 0.00 1017.1
20170323154430 12 273 0.0 0.0 0.00 0.00 0.00 1017.1
20170323153928 11 273 0.0 0.0 0.00 0.00 0.00 1017.2
20170323153429 10 273 0.0 0.0 0.00 0.00 0.00 1017.0
20170323152934 9 273 0.0 0.0 0.00 0.00 0.00 1017.0
20170323152929 9 273 0.0 0.0 0.00 0.00 0.00 1017.0
20170323152427 8 273 0.0 0.0 0.00 0.00 0.00 1016.7
20170323151928 9 273 0.0 0.0 0.00 0.00 0.00 1016.6
20170323151429 8 273 0.0 0.0 0.00 0.00 0.00 1016.5
20170323150929 7 273 0.0 0.0 0.00 0.00 0.00 1016.5
20170323150927 7 273 0.0 0.0 0.00 0.00 0.00 1016.5
20170323150427 8 273 0.0 0.0 0.00 0.00 0.00 1016.4
20170323145934 9 273 0.0 0.0 0.00 0.00 0.00 1016.3
20170323145928 9 273 0.0 0.0 0.00 0.00 0.00 1016.3
20170323145426 8 273 0.0 0.0 0.00 0.00 0.00 1016.4
20170323144927 8 273 0.0 0.0 0.00 0.00 0.00 1016.1
20170323144428 8 273 0.0 0.0 0.00 0.00 0.00 1016.0
20170323143928 8 273 0.0 0.0 0.00 0.00 0.00 1016.0
20170323143926 8 273 0.0 0.0 0.00 0.00 0.00 1016.0
20170323143426 8 273 0.0 0.0 0.00 0.00 0.00 1016.1
20170323142927 9 273 0.0 0.0 0.00 0.00 0.00 1016.0
20170323142425 9 273 0.0 0.0 0.00 0.00 0.00 1015.9
20170323141926 9 273 0.0 0.0 0.00 0.00 0.00 1015.8
20170323141427 9 273 0.0 0.0 0.00 0.00 0.00 1015.6
20170323140924 8 273 0.0 0.0 0.00 0.00 0.00 1015.6
20170323140425 9 273 0.0 0.0 0.00 0.00 0.00 1015.2
20170323135926 9 273 0.0 0.0 0.00 0.00 0.00 1015.5
20170323135424 9 273 0.0 0.0 0.00 0.00 0.00 1015.3
20170323134927 8 273 0.0 0.0 0.00 0.00 0.00 1015.2
20170323134925 8 273 0.0 0.0 0.00 0.00 0.00 1015.2
20170323134426 9 273 0.0 0.0 0.00 0.00 0.00 1015.3
20170323133924 8 273 0.0 0.0 0.00 0.00 0.00 1015.1
20170323133425 9 273 0.0 0.0 0.00 0.00 0.00 1015.1
20170323132927 8 273 0.0 0.0 0.00 0.00 0.00 1015.3
20170323132925 8 273 0.0 0.0 0.00 0.00 0.00 1015.3
20170323132423 8 273 0.0 0.0 0.00 0.00 0.00 1015.6
20170323131924 8 273 0.0 0.0 0.00 0.00 0.00 1015.6
20170323131433 8 273 0.0 0.0 0.00 0.00 0.00 1015.7
20170323131425 8 273 0.0 0.0 0.00 0.00 0.00 1015.7
20170323130923 8 273 0.0 0.0 0.00 0.00 0.00 1015.3
20170323130424 8 273 0.0 0.0 0.00 0.00 0.00 1015.6
20170323125931 8 273 0.0 0.0 0.00 0.00 0.00 1015.8
20170323125925 8 273 0.0 0.0 0.00 0.00 0.00 1015.8
20170323125423 8 273 0.0 0.0 0.00 0.00 0.00 1015.5
20170323124927 8 273 0.0 0.0 0.00 0.00 0.00 1015.3
20170323124923 8 273 0.0 0.0 0.00 0.00 0.00 1015.3
20170323124429 8 273 0.0 0.0 0.00 0.00 0.00 1015.3
20170323124424 8 273 0.0 0.0 0.00 0.00 0.00 1015.3
20170323123922 8 273 0.0 0.0 0.00 0.00 0.00 1015.2
20170323123423 7 273 0.0 0.0 0.00 0.00 0.00 1015.2
20170323122924 8 273 0.0 0.0 0.00 0.00 0.00 1014.9
20170323122427 8 273 0.0 0.0 0.00 0.00 0.00 1015.0
20170323122422 8 273 0.0 0.0 0.00 0.00 0.00 1015.0
20170323121923 8 273 0.0 0.0 0.00 0.00 0.00 1015.0
20170323121431 8 273 0.0 0.0 0.00 0.00 0.00 1014.8
20170323121424 8 273 0.0 0.0 0.00 0.00 0.00 1014.8
20170323120922 8 273 0.0 0.0 0.00 0.00 0.00 1014.7
20170323120428 8 273 0.0 0.0 0.00 0.00 0.00 1014.8
20170323120422 8 273 0.0 0.0 0.00 0.00 0.00 1014.8
20170323115930 7 273 0.0 0.0 0.00 0.00 0.00 1014.8
20170323115923 7 273 0.0 0.0 0.00 0.00 0.00 1014.8
20170323115427 7 273 0.0 0.0 0.00 0.00 0.00 1014.3
20170323115421 7 273 0.0 0.0 0.00 0.00 0.00 1014.3
20170323114928 8 273 0.0 0.0 0.00 0.00 0.00 1014.3
20170323114922 8 273 0.0 0.0 0.00 0.00 0.00 1014.3
20170323114423 8 273 0.0 0.0 0.00 0.00 0.00 1014.8
20170323113929 8 273 0.0 0.0 0.00 0.00 0.00 1014.7
20170323113921 8 273 0.0 0.0 0.00 0.00 0.00 1014.7
20170323113422 8 273 0.0 0.0 0.00 0.00 0.00 1014.4
20170323112923 8 273 0.0 0.0 0.00 0.00 0.00 1014.8
20170323112431 8 273 0.0 0.0 0.00 0.00 0.00 1014.5
20170323112421 8 273 0.0 0.0 0.00 0.00 0.00 1014.5
20170323111927 9 273 0.0 0.0 0.00 0.00 0.00 1014.7
20170323111922 9 273 0.0 0.0 0.00 0.00 0.00 1014.7
20170323111422 9 273 0.0 0.0 0.00 0.00 0.00 1014.8
20170323110929 9 273 0.0 0.0 0.00 0.00 0.00 1014.8
20170323110921 9 273 0.0 0.0 0.00 0.00 0.00 1014.8
20170323110421 9 273 0.0 0.0 0.00 0.00 0.00 1014.8
20170323105926 10 273 0.0 0.0 0.00 0.00 0.00 1014.7
20170323105922 10 273 0.0 0.0 0.00 0.00 0.00 1014.7
20170323105427 9 273 0.0 0.0 0.00 0.00 0.00 1014.8
20170323105420 9 273 0.0 0.0 0.00 0.00 0.00 1014.8
20170323104921 11 273 0.0 0.0 0.00 0.00 0.00 1014.9
20170323104422 11 273 0.0 0.0 0.00 0.00 0.00 1014.8
20170323103920 11 273 0.0 0.0 0.00 0.00 0.00 1014.7
20170323103421 11 273 0.0 0.0 0.00 0.00 0.00 1014.8
20170323102929 11 273 0.0 0.0 0.00 0.00 0.00 1014.9
20170323102922 11 273 0.0 0.0 0.00 0.00 0.00 1014.9
20170323102420 12 273 0.0 0.0 0.00 0.00 0.00 1014.8
20170323101921 11 273 0.0 0.0 0.00 0.00 0.00 1015.0
20170323101428 12 273 0.0 0.0 0.00 0.00 0.00 1015.0
20170323101422 12 273 0.0 0.0 0.00 0.00 0.00 1015.0
20170323100925 12 273 0.0 0.0 0.00 0.00 0.00 1015.0
20170323100920 12 273 0.0 0.0 0.00 0.00 0.00 1015.0
20170323100427 13 273 0.0 0.0 0.00 0.00 0.00 1015.0
20170323100421 13 273 0.0 0.0 0.00 0.00 0.00 1015.0
20170323095922 13 273 0.0 0.0 0.00 0.00 0.00 1015.0
20170323095420 12 273 0.0 0.0 0.00 0.00 0.00 1015.1
20170323094927 12 273 0.0 0.0 0.00 0.00 0.00 1015.0
20170323094921 12 273 0.0 0.0 0.00 0.00 0.00 1015.0
20170323094421 12 273 0.0 0.0 0.00 0.00 0.00 1015.0
20170323093928 13 273 0.0 0.0 0.00 0.00 0.00 1015.2
20170323093921 13 273 0.0 0.0 0.00 0.00 0.00 1015.2
20170323093919 13 273 0.0 0.0 0.00 0.00 0.00 1015.2
20170323093428 12 273 0.0 0.0 0.00 0.00 0.00 1015.1
20170323093420 12 273 0.0 0.0 0.00 0.00 0.00 1015.1
20170323092921 13 273 0.0 0.0 0.00 0.00 0.00 1015.1
20170323092420 13 273 0.0 0.0 0.00 0.00 0.00 1015.1
20170323091920 13 273 0.0 0.0 0.00 0.00 0.00 1015.1
20170323091422 13 273 0.0 0.0 0.00 0.00 0.00 1015.5
20170323090919 13 273 0.0 0.0 0.00 0.00 0.00 1015.5
20170323090420 13 273 0.0 0.0 0.00 0.00 0.00 1015.6
20170323085921 13 273 0.0 0.0 0.00 0.00 0.00 1015.6
20170323085425 13 273 0.0 0.0 0.00 0.00 0.00 1015.5
20170323085419 13 273 0.0 0.0 0.00 0.00 0.00 1015.5
20170323084926 13 273 0.0 0.0 0.00 0.00 0.00 1015.5
20170323084919 13 273 0.0 0.0 0.00 0.00 0.00 1015.5
20170323084428 13 273 0.0 0.0 0.00 0.00 0.00 1015.3
20170323084420 13 273 0.0 0.0 0.00 0.00 0.00 1015.3
20170323083918 13 273 0.0 0.0 0.00 0.00 0.00 1015.2
20170323083425 13 273 0.0 0.0 0.00 0.00 0.00 1015.2
20170323083419 13 273 0.0 0.0 0.00 0.00 0.00 1015.2
20170323082926 12 273 0.0 0.0 0.00 0.00 0.00 1015.3
20170323082920 12 273 0.0 0.0 0.00 0.00 0.00 1015.3
20170323082431 13 273 0.0 0.0 0.00 0.00 0.00 1015.2
20170323082418 13 273 0.0 0.0 0.00 0.00 0.00 1015.2
20170323081919 13 273 0.0 0.0 0.00 0.00 0.00 1015.2
20170323081424 14 273 0.0 0.0 0.00 0.00 0.00 1014.9
20170323081420 14 273 0.0 0.0 0.00 0.00 0.00 1014.9
20170323080918 13 273 0.0 0.0 0.00 0.00 0.00 1014.8
20170323080428 14 273 0.0 0.0 0.00 0.00 0.00 1014.7
20170323080419 14 273 0.0 0.0 0.00 0.00 0.00 1014.7
20170323075920 14 273 0.0 0.0 0.00 0.00 0.00 1014.7
20170323075420 13 273 0.0 0.0 0.00 0.00 0.00 1014.7
20170323075418 13 273 0.0 0.0 0.00 0.00 0.00 1014.7
20170323074926 11 273 0.0 0.0 0.00 0.00 0.00 1014.5
20170323074919 11 273 0.0 0.0 0.00 0.00 0.00 1014.5
20170323074420 11 273 0.0 0.0 0.00 0.00 0.00 1014.4
20170323073918 11 273 0.0 0.0 0.00 0.00 0.00 1014.7
20170323073421 11 273 0.0 0.0 0.00 0.00 0.00 1014.7
20170323073419 11 273 0.0 0.0 0.00 0.00 0.00 1014.7
20170323072919 11 273 0.0 0.0 0.00 0.00 0.00 1014.8
20170323072419 10 273 0.0 0.0 0.00 0.00 0.00 1014.9
20170323071921 10 273 0.0 0.0 0.00 0.00 0.00 1014.7
20170323071918 10 273 0.0 0.0 0.00 0.00 0.00 1014.7
20170323071421 10 273 0.0 0.0 0.00 0.00 0.00 1014.3
20170323070921 10 273 0.0 0.0 0.00 0.00 0.00 1014.3
20170323070918 10 273 0.0 0.0 0.00 0.00 0.00 1014.3
20170323070418 9 273 0.0 0.0 0.00 0.00 0.00 1014.3
20170323065919 9 273 0.0 0.0 0.00 0.00 0.00 1014.3
20170323065419 10 273 0.0 0.0 0.00 0.00 0.00 1014.5
20170323065417 10 273 0.0 0.0 0.00 0.00 0.00 1014.5
20170323064918 10 273 0.0 0.0 0.00 0.00 0.00 1014.3
20170323064428 9 273 0.0 0.0 0.00 0.00 0.00 1014.3
20170323064419 9 273 0.0 0.0 0.00 0.00 0.00 1014.3
20170323063919 11 273 0.0 0.0 0.00 0.00 0.00 1014.2
20170323063917 11 273 0.0 0.0 0.00 0.00 0.00 1014.2
20170323063421 12 273 0.0 0.0 0.00 0.00 0.00 1014.5
20170323063418 12 273 0.0 0.0 0.00 0.00 0.00 1014.5
20170323062919 12 273 0.0 0.0 0.00 0.00 0.00 1014.4
20170323062417 13 273 0.0 0.0 0.00 0.00 0.00 1014.4
20170323061925 12 273 0.0 0.0 0.00 0.00 0.00 1014.3
20170323061917 12 273 0.0 0.0 0.00 0.00 0.00 1014.3
20170323061418 12 273 0.0 0.0 0.00 0.00 0.00 1014.3
20170323060916 12 273 0.0 0.0 0.00 0.00 0.00 1014.1
20170323060417 12 273 0.0 0.0 0.00 0.00 0.00 1013.9
20170323055918 12 273 0.0 0.0 0.00 0.00 0.00 1014.1
20170323055416 12 273 0.0 0.0 0.00 0.00 0.00 1014.1
20170323054926 12 273 0.0 0.0 0.00 0.00 0.00 1014.1
20170323054917 12 273 0.0 0.0 0.00 0.00 0.00 1014.1
20170323054419 12 273 0.0 0.0 0.00 0.00 0.00 1014.0
20170323053920 12 273 0.0 0.0 0.00 0.00 0.00 1014.1
20170323053918 12 273 0.0 0.0 0.00 0.00 0.00 1014.1
20170323053417 12 273 0.0 0.0 0.00 0.00 0.00 1014.0
20170323052918 12 273 0.0 0.0 0.00 0.00 0.00 1014.0
20170323052416 12 273 0.0 0.0 0.00 0.00 0.00 1013.7
20170323051917 12 273 0.0 0.0 0.00 0.00 0.00 1013.5
20170323051423 11 273 0.0 0.0 0.00 0.00 0.00 1013.6
20170323051418 11 273 0.0 0.0 0.00 0.00 0.00 1013.6
20170323050916 12 273 0.0 0.0 0.00 0.00 0.00 1013.2
20170323050417 11 273 0.0 0.0 0.00 0.00 0.00 1013.0
20170323045918 11 273 0.0 0.0 0.00 0.00 0.00 1013.0
20170323045426 12 273 0.0 0.0 0.00 0.00 0.00 1013.2
20170323045416 12 273 0.0 0.0 0.00 0.00 0.00 1013.2
20170323044916 12 273 0.0 0.0 0.00 0.00 0.00 1013.0
20170323044424 11 273 0.0 0.0 0.00 0.00 0.00 1013.0
20170323044417 11 273 0.0 0.0 0.00 0.00 0.00 1013.0
20170323043915 11 273 0.0 0.0 0.00 0.00 0.00 1013.0
20170323043422 12 273 0.0 0.0 0.00 0.00 0.00 1012.8
20170323043416 12 273 0.0 0.0 0.00 0.00 0.00 1012.8
20170323042923 12 273 0.0 0.0 0.00 0.00 0.00 1012.8
20170323042917 12 273 0.0 0.0 0.00 0.00 0.00 1012.8
20170323042424 12 273 0.0 0.0 0.00 0.00 0.00 1012.7
20170323042415 12 273 0.0 0.0 0.00 0.00 0.00 1012.7
20170323041916 12 273 0.0 0.0 0.00 0.00 0.00 1012.7
20170323041417 12 273 0.0 0.0 0.00 0.00 0.00 1012.7
20170323040915 12 273 0.0 0.0 0.00 0.00 0.00 1012.5
20170323040415 12 273 0.0 0.0 0.00 0.00 0.00 1012.4
20170323035916 11 273 0.0 0.0 0.00 0.00 0.00 1012.1
20170323035414 12 273 0.0 0.0 0.00 0.00 0.00 1012.1
20170323034925 12 273 0.0 0.0 0.00 0.00 0.00 1012.1
20170323034915 12 273 0.0 0.0 0.00 0.00 0.00 1012.1
20170323034416 12 273 0.0 0.0 0.00 0.00 0.00 1012.2
20170323033914 12 273 0.0 0.0 0.00 0.00 0.00 1012.0
20170323033415 12 273 0.0 0.0 0.00 0.00 0.00 1012.0
20170323032918 12 273 0.0 0.0 0.00 0.00 0.00 1012.4
20170323032916 12 273 0.0 0.0 0.00 0.00 0.00 1012.4
20170323032416 12 273 0.0 0.0 0.00 0.00 0.00 1012.1
20170323032414 12 273 0.0 0.0 0.00 0.00 0.00 1012.1
20170323031915 12 273 0.0 0.0 0.00 0.00 0.00 1012.1
20170323031424 13 273 0.0 0.0 0.00 0.00 0.00 1012.0
20170323031416 13 273 0.0 0.0 0.00 0.00 0.00 1012.0
20170323030914 13 273 0.0 0.0 0.00 0.00 0.00 1011.8
20170323030415 12 273 0.0 0.0 0.00 0.00 0.00 1011.9
20170323025916 13 273 0.0 0.0 0.00 0.00 0.00 1012.1
20170323025414 13 273 0.0 0.0 0.00 0.00 0.00 1012.4
20170323024920 13 273 0.0 0.0 0.00 0.00 0.00 1012.7
20170323024915 13 273 0.0 0.0 0.00 0.00 0.00 1012.7
20170323024416 12 273 0.0 0.0 0.00 0.00 0.00 1012.4
20170323023914 13 273 0.0 0.0 0.00 0.00 0.00 1012.5
20170323023417 13 273 0.0 0.0 0.00 0.00 0.00 1012.6
20170323023414 13 273 0.0 0.0 0.00 0.00 0.00 1012.6
20170323022915 13 273 0.0 0.0 0.00 0.00 0.00 1012.9
20170323022413 13 273 0.0 0.0 0.00 0.00 0.00 1013.2
20170323021918 13 273 0.0 0.0 0.00 0.00 0.00 1013.4
20170323021914 13 273 0.0 0.0 0.00 0.00 0.00 1013.4
20170323021420 13 273 0.0 0.0 0.00 0.00 0.00 1013.2
20170323021415 13 273 0.0 0.0 0.00 0.00 0.00 1013.2
20170323020924 13 273 0.0 0.0 0.00 0.00 0.00 1012.8
20170323020913 13 273 0.0 0.0 0.00 0.00 0.00 1012.8
20170323020422 13 273 0.0 0.0 0.00 0.00 0.00 1012.7
20170323020414 13 273 0.0 0.0 0.00 0.00 0.00 1012.7